Terminal Aerodrome Forecast
Issued by NWS

Home | Current Version | Previous Version | Text Only | Print | Product List | Glossary On
Versions: 1 2 3 4 5 6 7 8 9 10 11 12 13 14 15 16 17 18 19 20 21 22 23 24 25 26 27 28
000
FTUS44 KOUN 271131
TAFLAW
TAF
KLAW 271131Z 2712/2812 VRB03KT P6SM FEW050 BKN070
      TEMPO 2712/2713 5SM TSRA BKN050CB
     FM271600 17012KT P6SM BKN040
     FM272100 15015KT P6SM OVC035 PROB30 2721/2724 3SM TSRA BKN025CB
      OVC050
     FM280000 11008KT P6SM OVC030 PROB30 2800/2805 2SM TSRA BKN015CB
      OVC040=

USA.gov is the U.S. government's official web portal to all federal, state and local government web resources and services.